Flag for China Weather past 2 weeks in Guilin, Guangxi, China

Now
64 °F

Fog.


Feels Like: 64 °F
Forecast: 61 / 70 °F
Wind: 1 mph from North

Location: Guilin Airport

Current Time: Mar 29, 2015 at 10:42:21 PM

Latest Report: Mar 29, 2015 at 10:00 PM


Visibility: 0 mi

Pressure: 29.89 "Hg

Humidity: 100%

Dew point: 64 °F

Location of GuilinLocation

Historic Weather in Guilin — Graph

°F

Guilin temperature yesterday

Maximum temperature yesterday: 63 °F (at 11:00 AM)
Minimum temperature yesterday: 59 °F (at 3:00 AM)
Average temperature yesterday: 60 °F

Past Weeks' High & Low Weather Summary

 TemperatureHumidityPressure
High84 °F (Mar 18, 4:00 PM)100% (Mar 15, 2:00 AM)30.33 "Hg (Mar 15, 2:00 AM)
Low55 °F (Mar 22, 4:00 AM)47% (Mar 22, 4:00 PM)29.65 "Hg (Mar 17, 4:00 PM)
Average63 °F85%30.05 "Hg
* Reported Mar 14 9:00 PM — Mar 29 9:00 PM, Guilin, Weather by CustomWeather, © 2015

Note: Actual official high and low records may vary slightly from our data, if they occured in-between our weather recording intervals... More about our weather records

Advertising

Guilin weather history for previous 24 hours

 ConditionsComfort  
Time TempWeatherWind HumidityBarometerVisibility
9:00 PM
Sun, Mar 29
66 °FLight rain. Fog.1 mph94%29.89 "Hg1 mi
8:00 PM66 °FLight rain. Fog.1 mph94%29.89 "Hg1 mi
7:00 PM66 °FFog.No wind94%29.86 "Hg1 mi
6:00 PM66 °FFog.1 mph94%29.86 "Hg1 mi
5:00 PM66 °FFog.1 mph94%29.86 "Hg1 mi
4:00 PM66 °FFog.3 mph94%29.89 "Hg1 mi
3:00 PM66 °FDrizzle. Fog.3 mph94%29.89 "Hg1 mi
2:00 PM68 °FFog.1 mph88%29.92 "Hg1 mi
1:00 PM66 °FFog.1 mph94%29.95 "Hg1 mi
12:00 PM66 °FFog.1 mph94%29.98 "Hg1 mi
11:00 AM63 °FLight rain. Fog.1 mph100%30.01 "Hg1 mi
10:00 AM63 °FLight rain. Fog.No wind94%30.01 "Hg1 mi
9:00 AM63 °FFog.No wind94%30.01 "Hg1 mi
8:00 AM61 °FFog.1 mph100%29.98 "Hg1 mi
7:00 AM61 °FFog.1 mph94%29.98 "Hg1 mi
6:00 AM61 °FFog.No wind94%29.98 "Hg1 mi
5:00 AM61 °FFog.No wind94%29.95 "Hg1 mi
4:00 AM61 °FFog.1 mph94%29.98 "Hg1 mi
3:00 AM61 °FLight rain. Fog.No wind94%29.98 "Hg1 mi
2:00 AM61 °FLight rain. Fog.No wind94%30.01 "Hg1 mi
1:00 AM61 °FFog.1 mph94%30.04 "Hg1 mi
12:00 AM61 °FFog.No wind94%30.04 "Hg1 mi
11:00 PM
Sat, Mar 28
61 °FFog.1 mph94%30.04 "Hg1 mi
10:00 PM61 °FFog.1 mph94%30.04 "Hg1 mi
Weather by CustomWeather, © 2015

See weather overviewHow to use our weather pages